| time (UTC) | temp F | wind direction | speed knots | gust knots | rain 1hr in | rain 24hr in | rain mn in | humidity % | barometer mb |
| 20260508090717 | 41 | 78 | 1.7 | 2.6 | 0.00 | 0.00 | 0.00 | 68 | 1003.3 |
| 20260508090214 | 41 | 109 | 0.9 | 4.3 | 0.00 | 0.00 | 0.00 | 67 | 1003.4 |
| 20260508085710 | 41 | 126 | 0.9 | 3.5 | 0.00 | 0.00 | 0.00 | 68 | 1003.5 |
| 20260508085207 | 41 | 134 | 1.7 | 4.3 | 0.00 | 0.00 | 0.00 | 66 | 1003.4 |
| 20260508084703 | 41 | 139 | 4.3 | 5.2 | 0.00 | 0.00 | 0.00 | 68 | 1003.4 |
| 20260508084201 | 41 | 143 | 3.5 | 4.3 | 0.00 | 0.00 | 0.00 | 66 | 1003.6 |
| 20260508083658 | 42 | 118 | 2.6 | 6.1 | 0.00 | 0.00 | 0.00 | 65 | 1003.5 |
| 20260508083155 | 42 | 129 | 1.7 | 5.2 | 0.00 | 0.00 | 0.00 | 65 | 1003.3 |
| 20260508082650 | 42 | 137 | 2.6 | 7.0 | 0.00 | 0.00 | 0.00 | 65 | 1003.4 |
| 20260508082148 | 42 | 120 | 2.6 | 4.3 | 0.00 | 0.00 | 0.00 | 65 | 1003.3 |
| 20260508081645 | 42 | 121 | 3.5 | 6.1 | 0.00 | 0.00 | 0.00 | 65 | 1003.3 |
| 20260508081141 | 42 | 179 | 1.7 | 5.2 | 0.00 | 0.00 | 0.00 | 64 | 1003.5 |
| 20260508080638 | 42 | 75 | 1.7 | 4.3 | 0.00 | 0.00 | 0.00 | 64 | 1003.3 |
| 20260508080137 | 42 | 72 | 0.0 | 2.6 | 0.00 | 0.00 | 0.00 | 64 | 1003.5 |
| 20260508075627 | 42 | 103 | 0.9 | 4.3 | 0.00 | 0.00 | 0.00 | 63 | 1003.5 |
| 20260508075124 | 42 | 100 | 0.9 | 3.5 | 0.00 | 0.00 | 0.00 | 64 | 1003.4 |
| 20260508074622 | 42 | 331 | 0.9 | 3.5 | 0.00 | 0.00 | 0.00 | 64 | 1003.4 |
| 20260508074118 | 42 | 144 | 0.9 | 2.6 | 0.00 | 0.00 | 0.00 | 65 | 1003.4 |
| 20260508073616 | 42 | 30 | 2.6 | 4.3 | 0.00 | 0.00 | 0.00 | 63 | 1003.3 |
| 20260508073114 | 43 | 155 | 2.6 | 4.3 | 0.00 | 0.00 | 0.00 | 63 | 1003.2 |
| 20260508072609 | 43 | 133 | 4.3 | 7.0 | 0.00 | 0.00 | 0.00 | 64 | 1003.3 |
| 20260508072106 | 43 | 102 | 1.7 | 6.1 | 0.00 | 0.00 | 0.00 | 63 | 1003.3 |
| 20260508071604 | 43 | 10 | 1.7 | 7.0 | 0.00 | 0.00 | 0.00 | 62 | 1003.3 |
| 20260508071103 | 43 | 241 | 0.0 | 8.7 | 0.00 | 0.00 | 0.00 | 63 | 1003.3 |
| 20260508070559 | 43 | 33 | 2.6 | 7.0 | 0.00 | 0.00 | 0.00 | 62 | 1003.2 |
| 20260508070058 | 44 | 21 | 2.6 | 6.1 | 0.00 | 0.00 | 0.00 | 61 | 1003.2 |
| 20260508065555 | 43 | 303 | 4.3 | 8.7 | 0.00 | 0.00 | 0.00 | 61 | 1003.3 |
| 20260508065053 | 43 | 36 | 1.7 | 5.2 | 0.00 | 0.00 | 0.00 | 62 | 1003.3 |
| 20260508064550 | 43 | 73 | 0.9 | 2.6 | 0.00 | 0.00 | 0.00 | 63 | 1003.0 |
| 20260508064048 | 44 | 57 | 3.5 | 7.8 | 0.00 | 0.00 | 0.00 | 61 | 1003.1 |
| 20260508063545 | 44 | 60 | 1.7 | 8.7 | 0.00 | 0.00 | 0.00 | 60 | 1003.3 |
| 20260508063043 | 44 | 23 | 4.3 | 8.7 | 0.00 | 0.00 | 0.00 | 60 | 1003.3 |
| 20260508062540 | 43 | 23 | 6.1 | 7.0 | 0.00 | 0.00 | 0.00 | 61 | 1003.3 |
| 20260508062036 | 44 | 43 | 2.6 | 7.0 | 0.00 | 0.00 | 0.00 | 61 | 1003.2 |
| 20260508061529 | 43 | 11 | 4.3 | 8.7 | 0.00 | 0.00 | 0.00 | 61 | 1003.8 |
| 20260508061025 | 43 | 95 | 1.7 | 5.2 | 0.00 | 0.00 | 0.00 | 61 | 1003.7 |
| 20260508060522 | 44 | 9 | 4.3 | 7.0 | 0.00 | 0.00 | 0.00 | 59 | 1003.6 |
| 20260508060020 | 44 | 196 | 1.7 | 7.0 | 0.00 | 0.00 | 0.00 | 59 | 1003.5 |
| 20260508055515 | 44 | 80 | 1.7 | 12.2 | 0.00 | 0.00 | 0.00 | 59 | 1003.7 |
| 20260508055012 | 44 | 113 | 2.6 | 7.8 | 0.00 | 0.00 | 0.00 | 59 | 1003.7 |
| 20260508054508 | 44 | 44 | 0.9 | 10.4 | 0.00 | 0.00 | 0.00 | 58 | 1003.7 |
| 20260508054006 | 44 | 14 | 2.6 | 10.4 | 0.00 | 0.00 | 0.00 | 59 | 1003.7 |
| 20260508053502 | 44 | 18 | 5.2 | 7.0 | 0.00 | 0.00 | 0.00 | 58 | 1003.6 |
| 20260508053000 | 44 | 27 | 3.5 | 9.6 | 0.00 | 0.00 | 0.00 | 59 | 1003.8 |
| 20260508052458 | 44 | 348 | 4.3 | 9.6 | 0.00 | 0.00 | 0.00 | 58 | 1003.8 |
| 20260508051954 | 44 | 50 | 0.9 | 4.3 | 0.00 | 0.00 | 0.00 | 59 | 1003.7 |
| 20260508051449 | 44 | 20 | 4.3 | 5.2 | 0.00 | 0.00 | 0.00 | 58 | 1003.7 |
| 20260508050945 | 44 | 306 | 1.7 | 8.7 | 0.00 | 0.00 | 0.00 | 59 | 1003.8 |
| 20260508050442 | 44 | 76 | 2.6 | 4.3 | 0.00 | 0.00 | 0.00 | 58 | 1004.1 |
| 20260508045939 | 44 | 344 | 0.9 | 3.5 | 0.00 | 0.00 | 0.00 | 58 | 1004.0 |
| 20260508045436 | 44 | 120 | 2.6 | 3.5 | 0.00 | 0.00 | 0.00 | 58 | 1003.9 |
| 20260508044933 | 44 | 229 | 1.7 | 3.5 | 0.00 | 0.00 | 0.00 | 58 | 1004.1 |
| 20260508044431 | 44 | 307 | 0.0 | 6.1 | 0.00 | 0.00 | 0.00 | 58 | 1004.0 |
| 20260508043926 | 44 | 96 | 0.9 | 3.5 | 0.00 | 0.00 | 0.00 | 58 | 1004.0 |
| 20260508043424 | 44 | 228 | 0.0 | 4.3 | 0.00 | 0.00 | 0.00 | 58 | 1004.1 |
| 20260508042920 | 44 | 85 | 0.9 | 5.2 | 0.00 | 0.00 | 0.00 | 56 | 1004.2 |
| 20260508042418 | 44 | 15 | 0.0 | 5.2 | 0.00 | 0.00 | 0.00 | 57 | 1004.0 |
| 20260508041914 | 44 | 41 | 4.3 | 4.3 | 0.00 | 0.00 | 0.00 | 57 | 1004.1 |
| 20260508041410 | 44 | 168 | 0.9 | 7.0 | 0.00 | 0.00 | 0.00 | 56 | 1004.1 |
| 20260508040907 | 44 | 129 | 0.9 | 2.6 | 0.00 | 0.00 | 0.00 | 56 | 1004.5 |
| 20260508040404 | 44 | 105 | 1.7 | 2.6 | 0.00 | 0.00 | 0.00 | 56 | 1004.4 |
| 20260508035902 | 45 | 40 | 0.0 | 4.3 | 0.00 | 0.16 | 0.16 | 55 | 1004.3 |
| 20260508035354 | 45 | 288 | 0.9 | 5.2 | 0.00 | 0.16 | 0.16 | 54 | 1004.4 |
| 20260508034850 | 45 | 75 | 0.0 | 4.3 | 0.00 | 0.16 | 0.16 | 55 | 1004.2 |
| 20260508034348 | 45 | 202 | 0.0 | 3.5 | 0.00 | 0.16 | 0.16 | 55 | 1004.6 |
| 20260508033845 | 45 | 201 | 3.5 | 5.2 | 0.00 | 0.16 | 0.16 | 54 | 1004.7 |
| 20260508033343 | 46 | 286 | 1.7 | 7.0 | 0.00 | 0.16 | 0.16 | 53 | 1004.4 |
| 20260508032840 | 45 | 56 | 2.6 | 4.3 | 0.00 | 0.16 | 0.16 | 54 | 1004.5 |
| 20260508032337 | 46 | 353 | 2.6 | 7.8 | 0.00 | 0.16 | 0.16 | 54 | 1004.6 |
| 20260508031834 | 45 | 5 | 0.9 | 5.2 | 0.00 | 0.16 | 0.16 | 55 | 1004.8 |
| 20260508031331 | 46 | 44 | 1.7 | 4.3 | 0.00 | 0.16 | 0.16 | 54 | 1004.7 |
| 20260508030827 | 46 | 64 | 0.9 | 6.1 | 0.00 | 0.16 | 0.16 | 54 | 1004.5 |
| 20260508030324 | 46 | 68 | 0.0 | 2.6 | 0.00 | 0.16 | 0.16 | 54 | 1004.4 |
| 20260508025820 | 46 | 136 | 2.6 | 4.3 | 0.00 | 0.16 | 0.16 | 54 | 1004.5 |
| 20260508025317 | 46 | 54 | 3.5 | 4.3 | 0.00 | 0.16 | 0.16 | 54 | 1004.2 |
| 20260508024814 | 46 | 351 | 1.7 | 4.3 | 0.00 | 0.16 | 0.16 | 52 | 1004.3 |
| 20260508024311 | 46 | 33 | 3.5 | 5.2 | 0.00 | 0.16 | 0.16 | 53 | 1004.4 |
| 20260508023808 | 46 | 34 | 1.7 | 4.3 | 0.00 | 0.16 | 0.16 | 54 | 1004.3 |
| 20260508023304 | 46 | 15 | 2.6 | 4.3 | 0.00 | 0.16 | 0.16 | 55 | 1004.3 |
| 20260508022800 | 46 | 50 | 1.7 | 5.2 | 0.00 | 0.16 | 0.16 | 54 | 1004.1 |
| 20260508022257 | 46 | 176 | 1.7 | 4.3 | 0.00 | 0.16 | 0.16 | 56 | 1004.1 |
| 20260508021754 | 46 | 147 | 0.0 | 6.1 | 0.00 | 0.16 | 0.16 | 58 | 1004.2 |
| 20260508021249 | 46 | 50 | 1.7 | 5.2 | 0.00 | 0.16 | 0.16 | 56 | 1004.1 |
| 20260508020746 | 46 | 16 | 2.6 | 4.3 | 0.00 | 0.16 | 0.16 | 54 | 1004.3 |
| 20260508020244 | 47 | 126 | 0.0 | 1.7 | 0.00 | 0.16 | 0.16 | 56 | 1004.4 |
| 20260508015741 | 47 | 19 | 0.9 | 2.6 | 0.00 | 0.16 | 0.16 | 55 | 1004.3 |
| 20260508015238 | 47 | 92 | 2.6 | 4.3 | 0.00 | 0.16 | 0.16 | 54 | 1004.1 |
| 20260508014735 | 47 | 44 | 0.9 | 4.3 | 0.00 | 0.16 | 0.16 | 54 | 1004.0 |
| 20260508014232 | 48 | 24 | 2.6 | 6.1 | 0.00 | 0.16 | 0.16 | 52 | 1004.4 |
| 20260508013727 | 48 | 61 | 0.9 | 5.2 | 0.00 | 0.16 | 0.16 | 52 | 1004.0 |
| 20260508013224 | 48 | 104 | 0.0 | 4.3 | 0.00 | 0.16 | 0.16 | 53 | 1004.2 |
| 20260508012722 | 49 | 8 | 7.8 | 7.8 | 0.00 | 0.16 | 0.16 | 50 | 1004.2 |
| 20260508012218 | 49 | 63 | 0.9 | 6.1 | 0.00 | 0.16 | 0.16 | 50 | 1004.0 |
| 20260508011717 | 49 | 3 | 2.6 | 5.2 | 0.00 | 0.16 | 0.16 | 51 | 1004.2 |
| 20260508011214 | 50 | 356 | 1.7 | 12.2 | 0.00 | 0.16 | 0.16 | 50 | 1004.1 |
| 20260508010710 | 50 | 16 | 4.3 | 7.8 | 0.00 | 0.16 | 0.16 | 50 | 1004.0 |
| 20260508010208 | 50 | 37 | 1.7 | 7.0 | 0.00 | 0.16 | 0.16 | 50 | 1004.1 |
| 20260508005705 | 50 | 11 | 4.3 | 5.2 | 0.00 | 0.16 | 0.16 | 52 | 1003.9 |
| 20260508005202 | 50 | 339 | 4.3 | 7.8 | 0.00 | 0.16 | 0.16 | 51 | 1003.7 |
| 20260508004657 | 50 | 32 | 3.5 | 8.7 | 0.00 | 0.16 | 0.16 | 50 | 1003.7 |
| 20260508004154 | 50 | 195 | 2.6 | 3.5 | 0.00 | 0.16 | 0.16 | 54 | 1003.7 |
| 20260508003651 | 50 | 51 | 6.1 | 8.7 | 0.00 | 0.16 | 0.16 | 51 | 1003.6 |
| 20260508003149 | 50 | 159 | 0.0 | 1.7 | 0.00 | 0.16 | 0.16 | 55 | 1003.5 |
| 20260508002645 | 51 | 33 | 0.0 | 4.3 | 0.00 | 0.16 | 0.16 | 51 | 1003.4 |
| 20260508002143 | 51 | 19 | 4.3 | 12.2 | 0.00 | 0.16 | 0.16 | 49 | 1003.3 |
| 20260508001638 | 51 | 71 | 2.6 | 4.3 | 0.00 | 0.16 | 0.16 | 52 | 1003.5 |
| 20260508001134 | 52 | 359 | 3.5 | 6.1 | 0.00 | 0.16 | 0.16 | 50 | 1003.3 |
| 20260508000630 | 52 | 3 | 1.7 | 13.0 | 0.00 | 0.16 | 0.16 | 52 | 1003.1 |
| 20260508000128 | 52 | 83 | 4.3 | 7.0 | 0.00 | 0.16 | 0.16 | 49 | 1002.9 |
| 20260507235624 | 53 | 327 | 0.0 | 3.5 | 0.00 | 0.16 | 0.16 | 50 | 1002.9 |
| 20260507235122 | 53 | 296 | 0.9 | 8.7 | 0.00 | 0.16 | 0.16 | 49 | 1002.7 |
| 20260507234618 | 53 | 335 | 0.0 | 4.3 | 0.00 | 0.16 | 0.16 | 50 | 1002.7 |
| 20260507234115 | 53 | 39 | 2.6 | 4.3 | 0.00 | 0.16 | 0.16 | 50 | 1002.6 |
| 20260507233612 | 55 | 16 | 0.9 | 6.1 | 0.00 | 0.16 | 0.16 | 47 | 1002.4 |
| 20260507233110 | 54 | 355 | 2.6 | 8.7 | 0.00 | 0.16 | 0.16 | 48 | 1002.2 |
| 20260507232611 | 55 | 2 | 4.3 | 7.8 | 0.00 | 0.16 | 0.16 | 45 | 1002.4 |
| 20260507232104 | 56 | 344 | 1.7 | 13.0 | 0.00 | 0.16 | 0.16 | 43 | 1002.4 |
| 20260507231600 | 56 | 353 | 2.6 | 9.6 | 0.00 | 0.16 | 0.16 | 38 | 1002.1 |
| 20260507231057 | 56 | 0 | 1.7 | 7.0 | 0.00 | 0.16 | 0.16 | 39 | 1002.1 |
| 20260507230554 | 56 | 8 | 1.7 | 6.1 | 0.00 | 0.16 | 0.16 | 40 | 1002.0 |
| 20260507230050 | 57 | 258 | 1.7 | 7.8 | 0.00 | 0.16 | 0.16 | 43 | 1001.8 |
| 20260507225545 | 57 | 47 | 2.6 | 13.9 | 0.00 | 0.16 | 0.16 | 38 | 1001.6 |
| 20260507225042 | 57 | 36 | 2.6 | 7.8 | 0.00 | 0.16 | 0.16 | 41 | 1001.6 |
| 20260507224538 | 57 | 349 | 3.5 | 13.0 | 0.00 | 0.16 | 0.16 | 41 | 1001.4 |
| 20260507224034 | 58 | 44 | 1.7 | 13.9 | 0.00 | 0.16 | 0.16 | 43 | 1001.4 |
| 20260507223531 | 58 | 0 | 3.5 | 7.0 | 0.00 | 0.16 | 0.16 | 41 | 1001.2 |
| 20260507223028 | 58 | 21 | 2.6 | 3.5 | 0.00 | 0.16 | 0.16 | 41 | 1001.1 |
| 20260507222525 | 58 | 206 | 1.7 | 8.7 | 0.00 | 0.16 | 0.16 | 40 | 1001.4 |
| 20260507222021 | 59 | 264 | 4.3 | 8.7 | 0.00 | 0.16 | 0.16 | 45 | 1001.3 |
| 20260507221518 | 59 | 250 | 1.7 | 4.3 | 0.00 | 0.16 | 0.16 | 43 | 1001.1 |
| 20260507221015 | 60 | 231 | 0.9 | 5.2 | 0.00 | 0.16 | 0.16 | 43 | 1001.0 |
| 20260507220512 | 60 | 2 | 6.1 | 7.0 | 0.00 | 0.16 | 0.16 | 45 | 1000.9 |
| 20260507220009 | 60 | 198 | 2.6 | 9.6 | 0.00 | 0.16 | 0.16 | 47 | 1001.0 |
| 20260507215505 | 60 | 359 | 1.7 | 8.7 | 0.00 | 0.16 | 0.16 | 47 | 1001.1 |
| 20260507215003 | 60 | 331 | 2.6 | 4.3 | 0.00 | 0.16 | 0.16 | 48 | 1001.1 |
| 20260507214500 | 60 | 2 | 0.0 | 9.6 | 0.00 | 0.16 | 0.16 | 49 | 1001.3 |
| 20260507213955 | 60 | 348 | 2.6 | 7.8 | 0.00 | 0.16 | 0.16 | 48 | 1001.2 |
| 20260507213452 | 60 | 18 | 4.3 | 7.0 | 0.00 | 0.16 | 0.16 | 52 | 1001.0 |
| 20260507212949 | 60 | 17 | 7.0 | 10.4 | 0.00 | 0.16 | 0.16 | 52 | 1001.2 |
| 20260507212445 | 58 | 142 | 1.7 | 4.3 | 0.00 | 0.16 | 0.16 | 57 | 1000.9 |
| 20260507211942 | 59 | 20 | 3.5 | 7.0 | 0.00 | 0.16 | 0.16 | 57 | 1001.1 |
| 20260507211438 | 59 | 318 | 0.0 | 5.2 | 0.00 | 0.16 | 0.16 | 61 | 1000.9 |
| 20260507210935 | 58 | 107 | 1.7 | 7.8 | 0.00 | 0.16 | 0.16 | 66 | 1001.1 |
| 20260507210432 | 57 | 195 | 1.7 | 8.7 | 0.00 | 0.16 | 0.16 | 68 | 1001.1 |
| 20260507205928 | 57 | 267 | 2.6 | 4.3 | 0.00 | 0.16 | 0.16 | 71 | 1001.1 |
| 20260507205421 | 56 | 198 | 2.6 | 7.0 | 0.00 | 0.16 | 0.16 | 71 | 1001.0 |
| 20260507204916 | 56 | 38 | 1.7 | 3.5 | 0.00 | 0.16 | 0.16 | 68 | 1000.9 |
| 20260507204413 | 57 | 8 | 2.6 | 4.3 | 0.00 | 0.16 | 0.16 | 70 | 1000.9 |
| 20260507203911 | 57 | 46 | 0.0 | 3.5 | 0.00 | 0.16 | 0.16 | 68 | 1000.8 |
| 20260507203409 | 58 | 197 | 2.6 | 5.2 | 0.00 | 0.16 | 0.16 | 68 | 1000.8 |
| 20260507202905 | 58 | 95 | 2.6 | 7.0 | 0.00 | 0.16 | 0.16 | 65 | 1000.7 |
| 20260507202401 | 58 | 194 | 2.6 | 6.1 | 0.00 | 0.16 | 0.16 | 66 | 1000.7 |
| 20260507201856 | 57 | 129 | 2.6 | 4.3 | 0.00 | 0.16 | 0.16 | 67 | 1000.7 |
| 20260507201352 | 57 | 253 | 2.6 | 7.0 | 0.00 | 0.16 | 0.16 | 67 | 1000.8 |
| 20260507200849 | 57 | 193 | 5.2 | 7.8 | 0.00 | 0.16 | 0.16 | 68 | 1000.7 |
| 20260507200345 | 58 | 124 | 4.3 | 8.7 | 0.00 | 0.16 | 0.16 | 65 | 1000.6 |
| 20260507195841 | 59 | 160 | 4.3 | 11.3 | 0.00 | 0.16 | 0.16 | 64 | 1000.7 |
| 20260507195338 | 59 | 141 | 1.7 | 7.8 | 0.00 | 0.16 | 0.16 | 63 | 1000.7 |
| 20260507194835 | 60 | 138 | 3.5 | 9.6 | 0.00 | 0.16 | 0.16 | 64 | 1000.7 |
| 20260507194326 | 58 | 103 | 0.9 | 4.3 | 0.00 | 0.16 | 0.16 | 69 | 1000.7 |
| 20260507193823 | 58 | 143 | 3.5 | 7.8 | 0.00 | 0.16 | 0.16 | 66 | 1000.6 |
| 20260507193320 | 59 | 135 | 1.7 | 6.1 | 0.00 | 0.16 | 0.16 | 64 | 1000.7 |
| 20260507192815 | 60 | 327 | 0.9 | 6.1 | 0.00 | 0.16 | 0.16 | 61 | 1001.0 |
| 20260507192313 | 61 | 56 | 6.1 | 7.8 | 0.00 | 0.16 | 0.16 | 48 | 1000.7 |
| 20260507191809 | 62 | 13 | 0.9 | 7.8 | 0.00 | 0.16 | 0.16 | 49 | 1000.8 |
| 20260507191305 | 62 | 6 | 2.6 | 9.6 | 0.00 | 0.16 | 0.16 | 50 | 1000.8 |
| 20260507190802 | 61 | 184 | 2.6 | 10.4 | 0.00 | 0.16 | 0.16 | 50 | 1000.9 |
| 20260507190301 | 61 | 192 | 3.5 | 5.2 | 0.00 | 0.16 | 0.16 | 56 | 1001.0 |
| 20260507185759 | 61 | 89 | 2.6 | 2.6 | 0.00 | 0.16 | 0.16 | 59 | 1000.9 |
| 20260507185255 | 60 | 31 | 4.3 | 6.1 | 0.00 | 0.16 | 0.16 | 62 | 1000.8 |
| 20260507184753 | 62 | 334 | 3.5 | 7.0 | 0.00 | 0.16 | 0.16 | 62 | 1001.0 |
| 20260507184251 | 60 | 143 | 0.0 | 3.5 | 0.00 | 0.16 | 0.16 | 61 | 1000.9 |
| 20260507183747 | 61 | 112 | 2.6 | 4.3 | 0.00 | 0.16 | 0.16 | 63 | 1001.0 |
| 20260507183244 | 60 | 4 | 2.6 | 7.0 | 0.00 | 0.16 | 0.16 | 66 | 1001.2 |
| 20260507182742 | 59 | 20 | 4.3 | 8.7 | 0.00 | 0.16 | 0.16 | 65 | 1001.3 |
| 20260507182236 | 60 | 27 | 2.6 | 4.3 | 0.00 | 0.16 | 0.16 | 67 | 1001.3 |
| 20260507181734 | 61 | 13 | 3.5 | 6.1 | 0.00 | 0.16 | 0.16 | 57 | 1001.0 |
| 20260507181230 | 61 | 348 | 2.6 | 4.3 | 0.00 | 0.16 | 0.16 | 51 | 1001.2 |
| 20260507180726 | 61 | 216 | 1.7 | 4.3 | 0.00 | 0.16 | 0.16 | 59 | 1001.4 |
| 20260507180223 | 60 | 179 | 0.9 | 6.1 | 0.00 | 0.16 | 0.16 | 54 | 1001.5 |
| 20260507175719 | 60 | 137 | 2.6 | 3.5 | 0.00 | 0.16 | 0.16 | 61 | 1001.4 |
| 20260507175216 | 61 | 24 | 1.7 | 5.2 | 0.00 | 0.16 | 0.16 | 64 | 1001.5 |
| 20260507174714 | 60 | 214 | 2.6 | 7.0 | 0.00 | 0.16 | 0.16 | 68 | 1001.7 |
| 20260507174211 | 59 | 229 | 4.3 | 9.6 | 0.00 | 0.16 | 0.16 | 72 | 1001.6 |
| 20260507173709 | 58 | 133 | 6.1 | 8.7 | 0.00 | 0.16 | 0.16 | 71 | 1001.7 |
| 20260507173205 | 58 | 131 | 4.3 | 9.6 | 0.00 | 0.16 | 0.16 | 73 | 1001.6 |
| 20260507172702 | 58 | 182 | 1.7 | 4.3 | 0.00 | 0.16 | 0.16 | 72 | 1001.7 |
| 20260507172158 | 57 | 121 | 0.9 | 7.8 | 0.00 | 0.16 | 0.16 | 72 | 1001.8 |
| 20260507171653 | 56 | 136 | 7.0 | 10.4 | 0.00 | 0.16 | 0.16 | 74 | 1001.6 |
| 20260507171150 | 55 | 266 | 0.9 | 6.1 | 0.00 | 0.16 | 0.16 | 75 | 1001.8 |
| 20260507170647 | 55 | 167 | 0.0 | 7.0 | 0.00 | 0.16 | 0.16 | 77 | 1001.8 |
| 20260507170144 | 55 | 89 | 8.7 | 9.6 | 0.00 | 0.16 | 0.16 | 77 | 1002.0 |
| 20260507165640 | 55 | 23 | 1.7 | 11.3 | 0.00 | 0.16 | 0.16 | 77 | 1001.9 |
| 20260507165136 | 55 | 116 | 6.1 | 7.0 | 0.00 | 0.16 | 0.16 | 78 | 1001.7 |
| 20260507164632 | 55 | 99 | 3.5 | 8.7 | 0.00 | 0.16 | 0.16 | 76 | 1002.0 |
| 20260507164130 | 54 | 236 | 7.0 | 10.4 | 0.00 | 0.16 | 0.16 | 77 | 1001.8 |
| 20260507163627 | 55 | 80 | 6.1 | 11.3 | 0.00 | 0.16 | 0.16 | 76 | 1002.0 |
| 20260507163125 | 56 | 24 | 7.8 | 8.7 | 0.00 | 0.16 | 0.16 | 73 | 1002.1 |
| 20260507162620 | 57 | 73 | 4.3 | 7.8 | 0.00 | 0.16 | 0.16 | 73 | 1002.3 |
| 20260507162117 | 56 | 12 | 2.6 | 8.7 | 0.00 | 0.16 | 0.16 | 75 | 1002.1 |
| 20260507161613 | 56 | 106 | 3.5 | 6.1 | 0.00 | 0.16 | 0.16 | 75 | 1002.0 |
| 20260507161110 | 55 | 50 | 4.3 | 7.8 | 0.00 | 0.16 | 0.16 | 76 | 1002.2 |
| 20260507160606 | 54 | 124 | 0.9 | 7.8 | 0.00 | 0.16 | 0.16 | 77 | 1002.4 |
| 20260507155558 | 54 | 305 | 0.9 | 6.1 | 0.00 | 0.16 | 0.16 | 75 | 1002.6 |
| 20260507155055 | 55 | 3 | 1.7 | 5.2 | 0.00 | 0.16 | 0.16 | 75 | 1002.6 |
| 20260507154552 | 56 | 118 | 6.1 | 7.0 | 0.00 | 0.16 | 0.16 | 74 | 1002.3 |
| 20260507154049 | 57 | 80 | 4.3 | 9.6 | 0.00 | 0.16 | 0.16 | 74 | 1002.4 |
| 20260507153546 | 56 | 148 | 1.7 | 7.8 | 0.00 | 0.16 | 0.16 | 75 | 1002.5 |
| 20260507153042 | 57 | 265 | 2.6 | 7.0 | 0.00 | 0.16 | 0.16 | 74 | 1002.6 |
| 20260507152538 | 57 | 83 | 4.3 | 7.0 | 0.00 | 0.16 | 0.16 | 74 | 1002.7 |
| 20260507152034 | 56 | 320 | 0.9 | 6.1 | 0.00 | 0.16 | 0.16 | 76 | 1002.4 |
| 20260507151530 | 59 | 201 | 1.7 | 5.2 | 0.00 | 0.16 | 0.16 | 73 | 1002.6 |
| 20260507151022 | 59 | 75 | 4.3 | 7.0 | 0.00 | 0.16 | 0.16 | 71 | 1002.7 |
| 20260507150519 | 59 | 161 | 1.7 | 3.5 | 0.00 | 0.16 | 0.16 | 69 | 1002.8 |
| 20260507150016 | 57 | 141 | 1.7 | 3.5 | 0.00 | 0.16 | 0.16 | 72 | 1002.6 |
| 20260507145510 | 59 | 358 | 2.6 | 3.5 | 0.00 | 0.16 | 0.16 | 66 | 1002.7 |
| 20260507145009 | 56 | 257 | 0.0 | 4.3 | 0.00 | 0.16 | 0.16 | 68 | 1003.0 |
| 20260507144505 | 57 | 223 | 1.7 | 2.6 | 0.00 | 0.16 | 0.16 | 67 | 1002.7 |
| 20260507144002 | 57 | 329 | 4.3 | 7.0 | 0.00 | 0.16 | 0.16 | 70 | 1002.8 |
| 20260507143459 | 55 | 171 | 0.9 | 2.6 | 0.00 | 0.16 | 0.16 | 71 | 1003.0 |
| 20260507142956 | 56 | 235 | 0.0 | 4.3 | 0.00 | 0.16 | 0.16 | 70 | 1003.2 |
| 20260507142452 | 56 | 154 | 1.7 | 4.3 | 0.00 | 0.16 | 0.16 | 71 | 1003.2 |
| 20260507141949 | 55 | 221 | 1.7 | 6.1 | 0.00 | 0.16 | 0.16 | 74 | 1003.3 |
| 20260507141445 | 56 | 155 | 0.9 | 2.6 | 0.00 | 0.16 | 0.16 | 69 | 1003.2 |
| 20260507140942 | 56 | 321 | 3.5 | 4.3 | 0.00 | 0.16 | 0.16 | 71 | 1003.1 |
| 20260507140438 | 56 | 170 | 2.6 | 3.5 | 0.00 | 0.16 | 0.16 | 71 | 1003.3 |
| 20260507135936 | 56 | 303 | 1.7 | 3.5 | 0.00 | 0.16 | 0.16 | 75 | 1003.2 |
| 20260507135433 | 56 | 317 | 0.0 | 3.5 | 0.00 | 0.16 | 0.16 | 73 | 1003.3 |
| 20260507134930 | 55 | 89 | 0.9 | 4.3 | 0.00 | 0.16 | 0.16 | 79 | 1003.4 |
| 20260507134426 | 55 | 176 | 3.5 | 5.2 | 0.00 | 0.16 | 0.16 | 73 | 1003.3 |
| 20260507133922 | 55 | 146 | 1.7 | 5.2 | 0.00 | 0.16 | 0.16 | 73 | 1003.3 |
| 20260507133418 | 54 | 147 | 0.0 | 6.1 | 0.00 | 0.16 | 0.16 | 72 | 1003.3 |
| 20260507132911 | 54 | 17 | 2.6 | 5.2 | 0.00 | 0.16 | 0.16 | 74 | 1003.5 |
| 20260507132407 | 54 | 200 | 6.1 | 7.8 | 0.00 | 0.16 | 0.16 | 76 | 1003.4 |
| 20260507131906 | 53 | 8 | 1.7 | 6.1 | 0.00 | 0.16 | 0.16 | 75 | 1003.8 |
| 20260507131401 | 54 | 297 | 1.7 | 2.6 | 0.00 | 0.16 | 0.16 | 76 | 1003.8 |
| 20260507130858 | 54 | 329 | 0.9 | 3.5 | 0.00 | 0.16 | 0.16 | 77 | 1003.8 |
| 20260507130355 | 53 | 347 | 1.7 | 6.1 | 0.00 | 0.16 | 0.16 | 80 | 1003.5 |
| 20260507125854 | 53 | 4 | 0.9 | 6.1 | 0.00 | 0.16 | 0.16 | 78 | 1003.6 |
| 20260507125351 | 53 | 38 | 7.8 | 7.8 | 0.00 | 0.16 | 0.16 | 80 | 1003.6 |
| 20260507124848 | 53 | 336 | 6.1 | 9.6 | 0.00 | 0.16 | 0.16 | 81 | 1003.7 |
| 20260507124344 | 52 | 18 | 3.5 | 5.2 | 0.00 | 0.16 | 0.16 | 82 | 1003.5 |
| 20260507123843 | 51 | 355 | 4.3 | 7.8 | 0.00 | 0.16 | 0.16 | 81 | 1003.9 |
| 20260507123340 | 51 | 14 | 1.7 | 5.2 | 0.00 | 0.16 | 0.16 | 85 | 1003.6 |
| 20260507122836 | 51 | 6 | 1.7 | 3.5 | 0.00 | 0.16 | 0.16 | 86 | 1003.5 |
| 20260507122331 | 51 | 359 | 1.7 | 2.6 | 0.00 | 0.16 | 0.16 | 86 | 1003.5 |
| 20260507121828 | 50 | 358 | 0.0 | 4.3 | 0.00 | 0.16 | 0.16 | 87 | 1002.9 |
| 20260507121324 | 51 | 353 | 0.0 | 4.3 | 0.00 | 0.16 | 0.16 | 88 | 1003.2 |
| 20260507120820 | 50 | 293 | 0.9 | 5.2 | 0.00 | 0.16 | 0.16 | 86 | 1003.6 |
| 20260507120317 | 49 | 200 | 0.9 | 2.6 | 0.00 | 0.16 | 0.16 | 94 | 1003.5 |
| 20260507115813 | 48 | 6 | 2.6 | 2.6 | 0.00 | 0.16 | 0.16 | 92 | 1003.3 |
| 20260507115309 | 48 | 186 | 1.7 | 3.5 | 0.00 | 0.16 | 0.16 | 92 | 1003.7 |
| 20260507114805 | 48 | 55 | 0.0 | 3.5 | 0.00 | 0.16 | 0.16 | 94 | 1003.4 |
| 20260507114302 | 49 | 12 | 2.6 | 5.2 | 0.00 | 0.16 | 0.16 | 92 | 1003.6 |
| 20260507113759 | 50 | 87 | 1.7 | 5.2 | 0.00 | 0.16 | 0.16 | 91 | 1004.0 |
| 20260507113256 | 47 | 235 | 0.0 | 1.7 | 0.00 | 0.16 | 0.16 | 95 | 1004.0 |
| 20260507112754 | 46 | 25 | 0.9 | 2.6 | 0.00 | 0.16 | 0.16 | 95 | 1003.5 |
| 20260507112251 | 46 | 26 | 1.7 | 2.6 | 0.00 | 0.16 | 0.16 | 95 | 1003.7 |
| 20260507111749 | 46 | 107 | 1.7 | 2.6 | 0.00 | 0.16 | 0.16 | 95 | 1004.7 |
| 20260507111245 | 46 | 127 | 1.7 | 2.6 | 0.00 | 0.16 | 0.16 | 95 | 1004.5 |
| 20260507110741 | 46 | 163 | 1.7 | 3.5 | 0.00 | 0.16 | 0.16 | 93 | 1003.9 |
| 20260507110237 | 46 | 132 | 1.7 | 2.6 | 0.00 | 0.16 | 0.16 | 94 | 1004.4 |
| 20260507105734 | 46 | 31 | 0.9 | 2.6 | 0.00 | 0.16 | 0.16 | 95 | 1004.3 |
| 20260507105230 | 46 | 138 | 1.7 | 2.6 | 0.00 | 0.16 | 0.16 | 95 | 1004.2 |
| 20260507104728 | 46 | 213 | 0.0 | 2.6 | 0.00 | 0.16 | 0.16 | 95 | 1004.1 |
| 20260507104224 | 46 | 181 | 0.0 | 2.6 | 0.00 | 0.16 | 0.16 | 95 | 1003.9 |
| 20260507103720 | 46 | 295 | 0.9 | 5.2 | 0.00 | 0.16 | 0.16 | 95 | 1003.9 |
| 20260507103217 | 46 | 238 | 0.9 | 4.3 | 0.00 | 0.16 | 0.16 | 95 | 1004.2 |
| 20260507102713 | 46 | 325 | 0.0 | 2.6 | 0.00 | 0.16 | 0.16 | 96 | 1003.8 |
| 20260507102210 | 46 | 49 | 0.0 | 2.6 | 0.00 | 0.16 | 0.16 | 95 | 1003.4 |
| 20260507101706 | 46 | 52 | 2.6 | 3.5 | 0.00 | 0.16 | 0.16 | 94 | 1003.1 |
| 20260507101201 | 46 | 89 | 1.7 | 2.6 | 0.00 | 0.16 | 0.16 | 95 | 1003.6 |
| 20260507100659 | 45 | 203 | 7.0 | 8.7 | 0.00 | 0.16 | 0.16 | 96 | 1003.6 |
| 20260507100157 | 45 | 205 | 3.5 | 5.2 | 0.00 | 0.16 | 0.16 | 98 | 1003.3 |
| 20260507095655 | 45 | 214 | 0.9 | 3.5 | 0.00 | 0.16 | 0.16 | 97 | 1002.9 |
| 20260507095151 | 45 | 343 | 0.9 | 2.6 | 0.00 | 0.16 | 0.16 | 98 | 1002.9 |
| 20260507094648 | 45 | 18 | 2.6 | 2.6 | 0.00 | 0.16 | 0.16 | 99 | 1003.5 |
| 20260507094144 | 45 | 326 | 0.0 | 3.5 | 0.00 | 0.16 | 0.16 | 99 | 1003.4 |
| 20260507093642 | 45 | 347 | 1.7 | 2.6 | 0.00 | 0.16 | 0.16 | 99 | 1003.3 |
| 20260507093141 | 45 | 0 | 0.9 | 1.7 | 0.00 | 0.16 | 0.16 | 99 | 1003.4 |
| 20260507092637 | 45 | 346 | 0.0 | 3.5 | 0.00 | 0.16 | 0.16 | 98 | 1003.3 |
| 20260507092133 | 45 | 32 | 2.6 | 4.3 | 0.00 | 0.16 | 0.16 | 99 | 1003.1 |
| 20260507091630 | 45 | 47 | 1.7 | 3.5 | 0.00 | 0.16 | 0.16 | 99 | 1003.5 |